Regional Weather Roundup
Issued by NWS Cleveland, OH

Home | Current Version | Previous Version | Graphics & Text | Print | Product List | Glossary On
Versions: 1 2 3 4 5 6 7 8 9 10 11 12 13 14 15 16 17 18 19 20 21 22 23 24 25 26 27 28 29 30 31 32 33 34 35 36 37 38 39 40 41 42 43 44 45 46 47 48 49 50
000
ASUS41 KCLE 190410
RWRCLE
OHIO REGIONAL WEATHER ROUNDUP
NATIONAL WEATHER SERVICE CLEVELAND, OH
1200 AM EDT THU OCT 19 2017

NOTE: "FAIR" INDICATES FEW OR NO CLOUDS BELOW 12,000 FEET WITH NO
SIGNIFICANT WEATHER AND/OR OBSTRUCTIONS TO VISIBILITY.

OHZ001>008-015>018-024>027-034-035-043-044-190500-
   NORTHWEST OHIO

CITY           SKY/WX    TMP DP  RH WIND       PRES   REMARKS
DEFIANCE       CLEAR     53  41  63 S7        30.14S
FINDLAY        CLEAR     47  39  74 S8        30.15S
TOLEDO EXPRESS CLEAR     57  43  59 S10       30.13R
TOLEDO EXEC    CLEAR     56  42  59 SW8       30.14S
LIMA           CLEAR     52  43  71 S7        30.17R
$$

OHZ009>014-019>023-028>033-038-089-190500-
   NORTHEAST OHIO

CITY           SKY/WX    TMP DP  RH WIND       PRES   REMARKS
CLE-HOPKINS    CLEAR     58  40  51 S12       30.17F
CLE-LAKEFRONT  CLEAR     58  40  51 S9        30.15S
CUY CO. ARPT   NOT AVBL
LORAIN-ELYRIA  CLEAR     53  36  52 S8        30.16S
ASHTABULA      CLEAR     51  42  71 S5        30.18S
AKRON-CANTON   CLEAR     50  37  61 S7        30.19S
WOOSTER        CLEAR     49  40  71 SW6       30.18F
MANSFIELD      CLEAR     54  41  61 S10       30.17F
YOUNGSTOWN     PTCLDY    55  39  54 S7        30.19S
$$

OHZ042-051>053-060>062-070>072-077>081-190500-
  SOUTHWEST OHIO

CITY           SKY/WX    TMP DP  RH WIND       PRES   REMARKS
CINC-COVINGTON CLEAR     51  45  79 S6        30.19F
CINC-LUNKEN    CLEAR     47  47 100 CALM      30.21F
HAMILTON       CLEAR     44  42  93 CALM      30.20F
DAYTON         CLEAR     54  45  71 S9        30.19S
WRIGHT-PAT AFB CLEAR     52  43  72 SE6       30.19R
DAYTON GENERAL CLEAR     50  43  77 S7        30.19S
WILMINGTON     CLEAR     50  44  80 SW6       30.20S
$$

OHZ036-037-039>041-045>050-054>059-063>069-073>076-082>088-190500-
  CENTRAL AND SOUTHEAST OHIO

CITY           SKY/WX    TMP DP  RH WIND       PRES   REMARKS
COLUMBUS       CLEAR     53  42  66 CALM      30.19F
OSU AIRPORT    CLEAR     54  43  66 S5        30.19S
BOLTON FIELD   CLEAR     53  43  69 S5        30.20S
RICKENBACK AFB CLEAR     51  42  72 S3        30.20S
NEWARK         CLEAR     44  40  85 CALM      30.20S
MARION         CLEAR     50  40  68 S8        30.18S
LANCASTER      CLEAR     42  40  92 CALM      30.21S
ZANESVILLE     CLEAR     46  41  82 CALM      30.21S
NEW PHILLY     NOT AVBL
$$




USA.gov is the U.S. government's official web portal to all federal, state and local government web resources and services.